contact:dominique.lefevre@mio.osupytheas.fr, maurice.libes@osupytheas.fr, didier.mallarino@osupytheas.fr
Project:EMSO http://www.emso-fr.org/EMSO-France
Depth: 2436.0 m
Title:EMSO Ligure Ouest : Data MII capteur CSTAR
DateTime,Latitude,Longitude,Instrument_Serial,Reference_Counts,Signal_Counts,Corrected_Signal_raw_counts,Calculated_Beam_c_inverse_meters,Internal_thermistor_counts
DateTime,Latitude,Longitude,Instrument_Serial,Reference_Counts,Signal_Counts,Corrected_Signal_raw_counts,Calculated_Beam_c_inverse_meters,Internal_thermistor_counts
2019-05-31T00:01:41,42.805,6.029,CST-1368DR,9276,12979,15562,0.014,551
2019-05-31T00:04:43,42.805,6.029,CST-1368DR,9276,12980,15563,0.014,551
2019-05-31T00:07:44,42.805,6.029,CST-1368DR,9276,12976,15559,0.015,551
2019-05-31T00:10:45,42.805,6.029,CST-1368DR,9276,12979,15563,0.014,551
2019-05-31T00:13:47,42.805,6.029,CST-1368DR,9276,12980,15563,0.014,551
2019-05-31T00:16:48,42.805,6.029,CST-1368DR,9275,12975,15559,0.015,551
2019-05-31T00:19:50,42.805,6.029,CST-1368DR,9276,12979,15562,0.014,551
2019-05-31T00:22:51,42.805,6.029,CST-1368DR,9276,12979,15562,0.014,551
2019-05-31T00:25:52,42.805,6.029,CST-1368DR,9275,12969,15551,0.017,551
2019-05-31T00:28:54,42.805,6.029,CST-1368DR,9276,12979,15563,0.014,551
2019-05-31T00:31:55,42.805,6.029,CST-1368DR,9275,12979,15563,0.014,551
2019-05-31T00:34:57,42.805,6.029,CST-1368DR,9275,12979,15564,0.013,551
2019-05-31T00:37:58,42.805,6.029,CST-1368DR,9275,12977,15562,0.014,551
2019-05-31T00:40:59,42.805,6.029,CST-1368DR,9275,12979,15563,0.014,551
2019-05-31T00:44:01,42.805,6.029,CST-1368DR,9275,12978,15562,0.014,551
2019-05-31T00:47:02,42.805,6.029,CST-1368DR,9275,12980,15565,0.013,550
2019-05-31T00:50:04,42.805,6.029,CST-1368DR,9275,12980,15565,0.013,551
2019-05-31T00:53:05,42.805,6.029,CST-1368DR,9275,12979,15564,0.013,551
2019-05-31T00:56:07,42.805,6.029,CST-1368DR,9275,12980,15565,0.013,551
2019-05-31T00:59:08,42.805,6.029,CST-1368DR,9275,12979,15564,0.013,550
2019-05-31T01:02:09,42.805,6.029,CST-1368DR,9275,12978,15562,0.014,551
2019-05-31T01:05:11,42.805,6.029,CST-1368DR,9275,12977,15561,0.014,551
2019-05-31T01:08:12,42.805,6.029,CST-1368DR,9275,12978,15563,0.014,551
2019-05-31T01:11:14,42.805,6.029,CST-1368DR,9275,12979,15564,0.013,551
2019-05-31T01:14:15,42.805,6.029,CST-1368DR,9275,12979,15564,0.013,550
2019-05-31T01:17:16,42.805,6.029,CST-1368DR,9275,12976,15560,0.014,551
2019-05-31T01:20:18,42.805,6.029,CST-1368DR,9275,12979,15563,0.014,551
2019-05-31T01:23:19,42.805,6.029,CST-1368DR,9275,12979,15564,0.013,551
2019-05-31T01:26:21,42.805,6.029,CST-1368DR,9275,12979,15563,0.014,551
2019-05-31T01:29:22,42.805,6.029,CST-1368DR,9275,12976,15560,0.014,551
2019-05-31T01:32:23,42.805,6.029,CST-1368DR,9275,12978,15563,0.014,550
2019-05-31T01:35:25,42.805,6.029,CST-1368DR,9275,12978,15562,0.014,551
2019-05-31T01:38:26,42.805,6.029,CST-1368DR,9275,12977,15562,0.014,551
2019-05-31T01:41:28,42.805,6.029,CST-1368DR,9275,12978,15563,0.014,551
2019-05-31T01:44:29,42.805,6.029,CST-1368DR,9275,12978,15563,0.014,551
2019-05-31T01:47:30,42.805,6.029,CST-1368DR,9275,12978,15563,0.014,550
2019-05-31T01:50:32,42.805,6.029,CST-1368DR,9275,12977,15561,0.014,551
2019-05-31T01:53:33,42.805,6.029,CST-1368DR,9275,12977,15561,0.014,551
2019-05-31T01:56:35,42.805,6.029,CST-1368DR,9274,12978,15564,0.013,551
2019-05-31T01:59:36,42.805,6.029,CST-1368DR,9274,12977,15563,0.014,551
2019-05-31T02:02:38,42.805,6.029,CST-1368DR,9274,12978,15564,0.013,551
2019-05-31T02:05:39,42.805,6.029,CST-1368DR,9274,12977,15562,0.014,551
2019-05-31T02:08:40,42.805,6.029,CST-1368DR,9274,12977,15563,0.014,550
2019-05-31T02:11:42,42.805,6.029,CST-1368DR,9274,12977,15563,0.014,551
2019-05-31T02:14:43,42.805,6.029,CST-1368DR,9274,12976,15562,0.014,551
2019-05-31T02:17:45,42.805,6.029,CST-1368DR,9274,12977,15562,0.014,551
2019-05-31T02:20:46,42.805,6.029,CST-1368DR,9274,12976,15562,0.014,551
2019-05-31T02:23:47,42.805,6.029,CST-1368DR,9274,12978,15564,0.013,550
2019-05-31T02:26:49,42.805,6.029,CST-1368DR,9274,12977,15563,0.014,551
2019-05-31T02:29:50,42.805,6.029,CST-1368DR,9274,12977,15563,0.014,551
2019-05-31T02:32:52,42.805,6.029,CST-1368DR,9274,12976,15562,0.014,551
2019-05-31T02:35:53,42.805,6.029,CST-1368DR,9274,12977,15562,0.014,551
2019-05-31T02:38:54,42.805,6.029,CST-1368DR,9274,12976,15562,0.014,551
2019-05-31T02:41:56,42.805,6.029,CST-1368DR,9274,12976,15561,0.014,551
2019-05-31T02:44:57,42.805,6.029,CST-1368DR,9274,12976,15562,0.014,551
2019-05-31T02:47:59,42.805,6.029,CST-1368DR,9274,12976,15561,0.014,550
2019-05-31T02:51:00,42.805,6.029,CST-1368DR,9274,12977,15563,0.014,551
2019-05-31T02:54:01,42.805,6.029,CST-1368DR,9274,12977,15562,0.014,551
2019-05-31T02:57:03,42.805,6.029,CST-1368DR,9274,12975,15560,0.014,550
2019-05-31T03:00:04,42.805,6.029,CST-1368DR,9274,12977,15563,0.014,551
2019-05-31T03:03:06,42.805,6.029,CST-1368DR,9274,12976,15562,0.014,551
2019-05-31T03:06:07,42.805,6.029,CST-1368DR,9274,12976,15562,0.014,551
2019-05-31T03:09:09,42.805,6.029,CST-1368DR,9274,12974,15559,0.015,551
2019-05-31T03:12:10,42.805,6.029,CST-1368DR,9274,12976,15562,0.014,551
2019-05-31T03:15:11,42.805,6.029,CST-1368DR,9273,12975,15562,0.014,551
2019-05-31T03:18:13,42.805,6.029,CST-1368DR,9274,12977,15563,0.014,551
2019-05-31T03:21:14,42.805,6.029,CST-1368DR,9273,12974,15561,0.014,551
2019-05-31T03:24:16,42.805,6.029,CST-1368DR,9273,12976,15563,0.014,551
2019-05-31T03:27:17,42.805,6.029,CST-1368DR,9273,12977,15564,0.013,551
2019-05-31T03:30:18,42.805,6.029,CST-1368DR,9273,12976,15563,0.014,551
2019-05-31T03:33:20,42.805,6.029,CST-1368DR,9273,12977,15564,0.013,551
2019-05-31T03:36:21,42.805,6.029,CST-1368DR,9273,12976,15563,0.014,551
2019-05-31T03:39:23,42.805,6.029,CST-1368DR,9273,12977,15564,0.013,551
2019-05-31T03:42:24,42.805,6.029,CST-1368DR,9273,12977,15564,0.013,551
2019-05-31T03:45:25,42.805,6.029,CST-1368DR,9273,12977,15564,0.013,551
2019-05-31T03:48:27,42.805,6.029,CST-1368DR,9273,12976,15563,0.014,551
2019-05-31T03:51:28,42.805,6.029,CST-1368DR,9273,12977,15564,0.013,551
2019-05-31T03:54:30,42.805,6.029,CST-1368DR,9273,12975,15561,0.014,551
2019-05-31T03:57:31,42.805,6.029,CST-1368DR,9273,12976,15563,0.014,551
2019-05-31T04:00:32,42.805,6.029,CST-1368DR,9273,12976,15563,0.014,551
2019-05-31T04:03:34,42.805,6.029,CST-1368DR,9273,12973,15560,0.014,551
2019-05-31T04:06:35,42.805,6.029,CST-1368DR,9273,12976,15563,0.014,551
2019-05-31T04:09:37,42.805,6.029,CST-1368DR,9273,12977,15564,0.013,550
2019-05-31T04:12:38,42.805,6.029,CST-1368DR,9273,12976,15563,0.014,551
2019-05-31T04:15:40,42.805,6.029,CST-1368DR,9273,12977,15564,0.013,551
2019-05-31T04:18:41,42.805,6.029,CST-1368DR,9273,12976,15563,0.014,551
2019-05-31T04:21:42,42.805,6.029,CST-1368DR,9273,12977,15564,0.013,551
2019-05-31T04:24:44,42.805,6.029,CST-1368DR,9273,12975,15562,0.014,550
2019-05-31T04:27:45,42.805,6.029,CST-1368DR,9273,12976,15563,0.014,551
2019-05-31T04:30:47,42.805,6.029,CST-1368DR,9273,12975,15562,0.014,551
2019-05-31T04:33:48,42.805,6.029,CST-1368DR,9273,12973,15560,0.014,551
2019-05-31T04:36:49,42.805,6.029,CST-1368DR,9273,12976,15563,0.014,551
2019-05-31T04:39:51,42.805,6.029,CST-1368DR,9272,12976,15564,0.013,551
2019-05-31T04:42:52,42.805,6.029,CST-1368DR,9272,12975,15564,0.013,551
2019-05-31T04:45:54,42.805,6.029,CST-1368DR,9272,12975,15564,0.013,551
2019-05-31T04:48:55,42.805,6.029,CST-1368DR,9272,12976,15564,0.013,551
2019-05-31T04:51:56,42.805,6.029,CST-1368DR,9273,12975,15562,0.014,551
2019-05-31T04:54:58,42.805,6.029,CST-1368DR,9272,12975,15563,0.014,551
2019-05-31T04:57:59,42.805,6.029,CST-1368DR,9272,12976,15564,0.013,551
2019-05-31T05:01:01,42.805,6.029,CST-1368DR,9272,12974,15563,0.014,551
2019-05-31T05:04:02,42.805,6.029,CST-1368DR,9272,12975,15564,0.013,551
2019-05-31T05:07:04,42.805,6.029,CST-1368DR,9272,12973,15561,0.014,551
2019-05-31T05:10:05,42.805,6.029,CST-1368DR,9272,12974,15562,0.014,551
2019-05-31T05:13:06,42.805,6.029,CST-1368DR,9272,12976,15564,0.013,551
2019-05-31T05:16:08,42.805,6.029,CST-1368DR,9272,12977,15565,0.013,551
2019-05-31T05:19:09,42.805,6.029,CST-1368DR,9272,12974,15562,0.014,551
2019-05-31T05:22:11,42.805,6.029,CST-1368DR,9272,12976,15564,0.013,551
2019-05-31T05:25:12,42.805,6.029,CST-1368DR,9272,12975,15564,0.013,551
2019-05-31T05:28:13,42.805,6.029,CST-1368DR,9272,12975,15564,0.013,551
2019-05-31T05:31:15,42.805,6.029,CST-1368DR,9272,12974,15563,0.014,551
2019-05-31T05:34:16,42.805,6.029,CST-1368DR,9272,12975,15564,0.013,551
2019-05-31T05:37:18,42.805,6.029,CST-1368DR,9272,12976,15564,0.013,551
2019-05-31T05:40:19,42.805,6.029,CST-1368DR,9272,12975,15564,0.013,551
2019-05-31T05:43:20,42.805,6.029,CST-1368DR,9272,12974,15562,0.014,551
2019-05-31T05:46:22,42.805,6.029,CST-1368DR,9272,12974,15562,0.014,550
2019-05-31T05:49:23,42.805,6.029,CST-1368DR,9272,12975,15564,0.013,551
2019-05-31T05:52:25,42.805,6.029,CST-1368DR,9272,12975,15564,0.013,551
2019-05-31T05:55:26,42.805,6.029,CST-1368DR,9272,12974,15562,0.014,551
2019-05-31T05:58:27,42.805,6.029,CST-1368DR,9272,12974,15562,0.014,551
2019-05-31T06:01:29,42.805,6.029,CST-1368DR,9272,12974,15563,0.014,551
2019-05-31T06:04:30,42.805,6.029,CST-1368DR,9272,12972,15560,0.014,551
2019-05-31T06:07:32,42.805,6.029,CST-1368DR,9272,12975,15563,0.014,551
2019-05-31T06:10:33,42.805,6.029,CST-1368DR,9272,12975,15563,0.014,551
2019-05-31T06:13:35,42.805,6.029,CST-1368DR,9272,12975,15564,0.013,551
2019-05-31T06:16:36,42.805,6.029,CST-1368DR,9272,12975,15563,0.014,550
2019-05-31T06:19:37,42.805,6.029,CST-1368DR,9272,12974,15562,0.014,551
2019-05-31T06:22:39,42.805,6.029,CST-1368DR,9272,12974,15562,0.014,551
2019-05-31T06:25:40,42.805,6.029,CST-1368DR,9272,12975,15563,0.014,551
2019-05-31T06:28:42,42.805,6.029,CST-1368DR,9271,12973,15563,0.014,551
2019-05-31T06:31:43,42.805,6.029,CST-1368DR,9271,12975,15565,0.013,551
2019-05-31T06:34:44,42.805,6.029,CST-1368DR,9272,12975,15563,0.014,551
2019-05-31T06:37:46,42.805,6.029,CST-1368DR,9271,12972,15562,0.014,551
2019-05-31T06:40:47,42.805,6.029,CST-1368DR,9271,12975,15565,0.013,551
2019-05-31T06:43:49,42.805,6.029,CST-1368DR,9271,12975,15565,0.013,551
2019-05-31T06:46:50,42.805,6.029,CST-1368DR,9271,12975,15565,0.013,551
2019-05-31T06:49:51,42.805,6.029,CST-1368DR,9271,12975,15565,0.013,551
2019-05-31T06:52:53,42.805,6.029,CST-1368DR,9271,12975,15565,0.013,551
2019-05-31T06:55:54,42.805,6.029,CST-1368DR,9271,12974,15564,0.013,551
2019-05-31T06:58:56,42.805,6.029,CST-1368DR,9271,12973,15562,0.014,551
2019-05-31T07:01:57,42.805,6.029,CST-1368DR,9271,12973,15563,0.014,551
2019-05-31T07:04:58,42.805,6.029,CST-1368DR,9271,12972,15561,0.014,551
2019-05-31T07:08:00,42.805,6.029,CST-1368DR,9271,12974,15564,0.013,551
2019-05-31T07:11:01,42.805,6.029,CST-1368DR,9271,12973,15563,0.014,551
2019-05-31T07:14:03,42.805,6.029,CST-1368DR,9271,12973,15563,0.014,551
2019-05-31T07:17:04,42.805,6.029,CST-1368DR,9271,12972,15562,0.014,551
2019-05-31T07:20:06,42.805,6.029,CST-1368DR,9271,12973,15563,0.014,550
2019-05-31T07:23:07,42.805,6.029,CST-1368DR,9271,12972,15562,0.014,551
2019-05-31T07:26:08,42.805,6.029,CST-1368DR,9271,12974,15564,0.013,551
2019-05-31T07:29:10,42.805,6.029,CST-1368DR,9271,12974,15564,0.013,551
2019-05-31T07:32:11,42.805,6.029,CST-1368DR,9271,12973,15563,0.014,551
2019-05-31T07:35:13,42.805,6.029,CST-1368DR,9271,12973,15563,0.014,551
2019-05-31T07:38:14,42.805,6.029,CST-1368DR,9271,12973,15562,0.014,551
2019-05-31T07:41:15,42.805,6.029,CST-1368DR,9271,12972,15562,0.014,551
2019-05-31T07:44:17,42.805,6.029,CST-1368DR,9271,12973,15563,0.014,551
2019-05-31T07:47:18,42.805,6.029,CST-1368DR,9271,12972,15562,0.014,551
2019-05-31T07:50:20,42.805,6.029,CST-1368DR,9271,12974,15563,0.014,551
2019-05-31T07:53:21,42.805,6.029,CST-1368DR,9271,12972,15561,0.014,551
2019-05-31T07:56:22,42.805,6.029,CST-1368DR,9271,12972,15562,0.014,551
2019-05-31T07:59:24,42.805,6.029,CST-1368DR,9271,12972,15562,0.014,551
2019-05-31T08:02:25,42.805,6.029,CST-1368DR,9271,12974,15564,0.013,550
2019-05-31T08:05:27,42.805,6.029,CST-1368DR,9271,12972,15562,0.014,551
2019-05-31T08:08:28,42.805,6.029,CST-1368DR,9271,12972,15561,0.014,551
2019-05-31T08:11:30,42.805,6.029,CST-1368DR,9270,12974,15565,0.013,550
2019-05-31T08:14:31,42.805,6.029,CST-1368DR,9270,12974,15565,0.013,551
2019-05-31T08:17:32,42.805,6.029,CST-1368DR,9270,12971,15561,0.014,551
2019-05-31T08:20:34,42.805,6.029,CST-1368DR,9270,12972,15563,0.014,551
2019-05-31T08:23:35,42.805,6.029,CST-1368DR,9270,12972,15563,0.014,551
2019-05-31T08:26:37,42.805,6.029,CST-1368DR,9270,12972,15563,0.014,551
2019-05-31T08:29:38,42.805,6.029,CST-1368DR,9270,12972,15563,0.014,551
2019-05-31T08:32:39,42.805,6.029,CST-1368DR,9270,12972,15562,0.014,551
2019-05-31T08:35:41,42.805,6.029,CST-1368DR,9270,12958,15546,0.018,551
2019-05-31T08:38:42,42.805,6.029,CST-1368DR,9270,12971,15562,0.014,551
2019-05-31T08:41:44,42.805,6.029,CST-1368DR,9270,12970,15561,0.014,550
2019-05-31T08:44:45,42.805,6.029,CST-1368DR,9270,12971,15562,0.014,551
2019-05-31T08:47:46,42.805,6.029,CST-1368DR,9270,12972,15563,0.014,551
2019-05-31T08:50:48,42.805,6.029,CST-1368DR,9270,12971,15562,0.014,551
2019-05-31T08:53:49,42.805,6.029,CST-1368DR,9270,12972,15563,0.014,551
2019-05-31T08:56:51,42.805,6.029,CST-1368DR,9270,12972,15563,0.014,551
2019-05-31T08:59:52,42.805,6.029,CST-1368DR,9270,12971,15562,0.014,551
2019-05-31T09:02:53,42.805,6.029,CST-1368DR,9270,12971,15562,0.014,551
2019-05-31T09:05:55,42.805,6.029,CST-1368DR,9270,12971,15562,0.014,551
2019-05-31T09:08:56,42.805,6.029,CST-1368DR,9270,12971,15562,0.014,551
2019-05-31T09:11:58,42.805,6.029,CST-1368DR,9270,12971,15561,0.014,551
2019-05-31T09:14:59,42.805,6.029,CST-1368DR,9270,12972,15562,0.014,551
2019-05-31T09:18:01,42.805,6.029,CST-1368DR,9270,12970,15561,0.014,551
2019-05-31T09:21:02,42.805,6.029,CST-1368DR,9270,12971,15562,0.014,551
2019-05-31T09:24:03,42.805,6.029,CST-1368DR,9270,12971,15561,0.014,551
2019-05-31T09:27:05,42.805,6.029,CST-1368DR,9269,12968,15559,0.015,551
2019-05-31T09:30:06,42.805,6.029,CST-1368DR,9269,12971,15563,0.014,550
2019-05-31T09:33:08,42.805,6.029,CST-1368DR,9269,12971,15563,0.014,551
2019-05-31T09:36:09,42.805,6.029,CST-1368DR,9269,12971,15563,0.014,551
2019-05-31T09:39:10,42.805,6.029,CST-1368DR,9269,12971,15564,0.013,551
2019-05-31T09:42:12,42.805,6.029,CST-1368DR,9269,12970,15562,0.014,551
2019-05-31T09:45:13,42.805,6.029,CST-1368DR,9269,12970,15562,0.014,551
2019-05-31T09:48:15,42.805,6.029,CST-1368DR,9269,12971,15563,0.014,551
2019-05-31T09:51:16,42.805,6.029,CST-1368DR,9269,12968,15560,0.014,551
2019-05-31T09:54:17,42.805,6.029,CST-1368DR,9269,12970,15562,0.014,550
2019-05-31T09:57:19,42.805,6.029,CST-1368DR,9269,12971,15563,0.014,551
2019-05-31T10:00:20,42.805,6.029,CST-1368DR,9269,12970,15562,0.014,551
2019-05-31T10:03:22,42.805,6.029,CST-1368DR,9269,12970,15562,0.014,551
2019-05-31T10:06:23,42.805,6.029,CST-1368DR,9269,12970,15562,0.014,551
2019-05-31T10:09:24,42.805,6.029,CST-1368DR,9269,12968,15560,0.014,551
2019-05-31T10:12:26,42.805,6.029,CST-1368DR,9269,12971,15563,0.014,551
2019-05-31T10:15:27,42.805,6.029,CST-1368DR,9269,12968,15560,0.014,551
2019-05-31T10:18:29,42.805,6.029,CST-1368DR,9269,12970,15562,0.014,551
2019-05-31T10:21:30,42.805,6.029,CST-1368DR,9269,12971,15563,0.014,551
2019-05-31T10:24:32,42.805,6.029,CST-1368DR,9269,12968,15560,0.014,551
2019-05-31T10:27:33,42.805,6.029,CST-1368DR,9269,12969,15560,0.014,551
2019-05-31T10:30:34,42.805,6.029,CST-1368DR,9269,12969,15561,0.014,551
2019-05-31T10:33:36,42.805,6.029,CST-1368DR,9269,12970,15562,0.014,551
2019-05-31T10:36:37,42.805,6.029,CST-1368DR,9269,12970,15562,0.014,551
2019-05-31T10:39:39,42.805,6.029,CST-1368DR,9269,12963,15554,0.016,551
2019-05-31T10:42:40,42.805,6.029,CST-1368DR,9269,12970,15562,0.014,551
2019-05-31T10:45:41,42.805,6.029,CST-1368DR,9269,12970,15562,0.014,551
2019-05-31T10:48:43,42.805,6.029,CST-1368DR,9269,12970,15562,0.014,551
2019-05-31T10:51:44,42.805,6.029,CST-1368DR,9269,12969,15561,0.014,551
2019-05-31T10:54:46,42.805,6.029,CST-1368DR,9269,12969,15561,0.014,551
2019-05-31T10:57:47,42.805,6.029,CST-1368DR,9269,12970,15562,0.014,551
2019-05-31T11:00:48,42.805,6.029,CST-1368DR,9268,12969,15563,0.014,550
2019-05-31T11:03:50,42.805,6.029,CST-1368DR,9268,12969,15563,0.014,551
2019-05-31T11:06:51,42.805,6.029,CST-1368DR,9268,12969,15562,0.014,551
2019-05-31T11:09:53,42.805,6.029,CST-1368DR,9268,12969,15563,0.014,551
2019-05-31T11:12:54,42.805,6.029,CST-1368DR,9268,12970,15564,0.013,551
2019-05-31T11:15:56,42.805,6.029,CST-1368DR,9268,12969,15563,0.014,551
2019-05-31T11:18:57,42.805,6.029,CST-1368DR,9268,12969,15563,0.014,551
2019-05-31T11:21:58,42.805,6.029,CST-1368DR,9268,12968,15562,0.014,551
2019-05-31T11:25:00,42.805,6.029,CST-1368DR,9268,12969,15562,0.014,551
2019-05-31T11:28:01,42.805,6.029,CST-1368DR,9268,12968,15562,0.014,551
2019-05-31T11:31:03,42.805,6.029,CST-1368DR,9268,12969,15562,0.014,551
2019-05-31T11:34:04,42.805,6.029,CST-1368DR,9268,12967,15560,0.014,551
2019-05-31T11:37:05,42.805,6.029,CST-1368DR,9268,12968,15562,0.014,551
2019-05-31T11:40:07,42.805,6.029,CST-1368DR,9268,12967,15560,0.014,551
2019-05-31T11:43:08,42.805,6.029,CST-1368DR,9268,12968,15561,0.014,551
2019-05-31T11:46:10,42.805,6.029,CST-1368DR,9268,12968,15561,0.014,550
2019-05-31T11:49:11,42.805,6.029,CST-1368DR,9268,12966,15559,0.015,551
2019-05-31T11:52:12,42.805,6.029,CST-1368DR,9268,12968,15562,0.014,551
2019-05-31T11:55:14,42.805,6.029,CST-1368DR,9268,12968,15561,0.014,551
2019-05-31T11:58:15,42.805,6.029,CST-1368DR,9268,12968,15562,0.014,550
2019-05-31T12:01:17,42.805,6.029,CST-1368DR,9268,12969,15562,0.014,551
2019-05-31T12:04:18,42.805,6.029,CST-1368DR,9268,12969,15562,0.014,551
2019-05-31T12:07:19,42.805,6.029,CST-1368DR,9268,12968,15561,0.014,551
2019-05-31T12:10:21,42.805,6.029,CST-1368DR,9268,12968,15562,0.014,551
2019-05-31T12:13:22,42.805,6.029,CST-1368DR,9268,12966,15559,0.015,551
2019-05-31T12:16:24,42.805,6.029,CST-1368DR,9268,12967,15560,0.014,551
2019-05-31T12:19:25,42.805,6.029,CST-1368DR,9268,12969,15563,0.014,551
2019-05-31T12:22:27,42.805,6.029,CST-1368DR,9268,12968,15562,0.014,551
2019-05-31T12:25:28,42.805,6.029,CST-1368DR,9268,12967,15560,0.014,551
2019-05-31T12:28:29,42.805,6.029,CST-1368DR,9268,12967,15560,0.014,551
2019-05-31T12:31:31,42.805,6.029,CST-1368DR,9268,12968,15561,0.014,550
2019-05-31T12:34:32,42.805,6.029,CST-1368DR,9268,12968,15561,0.014,551
2019-05-31T12:37:34,42.805,6.029,CST-1368DR,9268,12969,15562,0.014,551
2019-05-31T12:40:35,42.805,6.029,CST-1368DR,9268,12968,15562,0.014,551
2019-05-31T12:43:36,42.805,6.029,CST-1368DR,9267,12967,15561,0.014,551
2019-05-31T12:46:38,42.805,6.029,CST-1368DR,9267,12968,15563,0.014,551
2019-05-31T12:49:39,42.805,6.029,CST-1368DR,9267,12968,15562,0.014,551
2019-05-31T12:52:41,42.805,6.029,CST-1368DR,9267,12966,15560,0.014,551
2019-05-31T12:55:42,42.805,6.029,CST-1368DR,9267,12967,15562,0.014,551
2019-05-31T12:58:43,42.805,6.029,CST-1368DR,9267,12968,15563,0.014,551
2019-05-31T13:01:45,42.805,6.029,CST-1368DR,9267,12967,15562,0.014,551
2019-05-31T13:04:46,42.805,6.029,CST-1368DR,9267,12968,15562,0.014,551
2019-05-31T13:07:48,42.805,6.029,CST-1368DR,9267,12968,15563,0.014,551
2019-05-31T13:10:49,42.805,6.029,CST-1368DR,9267,12966,15561,0.014,551
2019-05-31T13:13:50,42.805,6.029,CST-1368DR,9267,12967,15562,0.014,551
2019-05-31T13:16:52,42.805,6.029,CST-1368DR,9267,12967,15561,0.014,551
2019-05-31T13:19:53,42.805,6.029,CST-1368DR,9267,12968,15562,0.014,551
2019-05-31T13:22:55,42.805,6.029,CST-1368DR,9267,12967,15562,0.014,551
2019-05-31T13:25:56,42.805,6.029,CST-1368DR,9267,12966,15560,0.014,551
2019-05-31T13:28:58,42.805,6.029,CST-1368DR,9267,12966,15560,0.014,551
2019-05-31T13:31:59,42.805,6.029,CST-1368DR,9267,12967,15562,0.014,551
2019-05-31T13:35:00,42.805,6.029,CST-1368DR,9267,12967,15561,0.014,551
2019-05-31T13:38:02,42.805,6.029,CST-1368DR,9267,12965,15559,0.015,551
2019-05-31T13:41:03,42.805,6.029,CST-1368DR,9267,12967,15562,0.014,551
2019-05-31T13:44:05,42.805,6.029,CST-1368DR,9267,12967,15562,0.014,551
2019-05-31T13:47:06,42.805,6.029,CST-1368DR,9267,12968,15562,0.014,550
2019-05-31T13:50:07,42.805,6.029,CST-1368DR,9267,12967,15562,0.014,551
2019-05-31T13:53:09,42.805,6.029,CST-1368DR,9267,12966,15561,0.014,551
2019-05-31T13:56:10,42.805,6.029,CST-1368DR,9267,12967,15561,0.014,551
2019-05-31T13:59:12,42.805,6.029,CST-1368DR,9267,12966,15561,0.014,551
2019-05-31T14:02:13,42.805,6.029,CST-1368DR,9267,12967,15562,0.014,551
2019-05-31T14:05:14,42.805,6.029,CST-1368DR,9267,12967,15562,0.014,551
2019-05-31T14:08:16,42.805,6.029,CST-1368DR,9266,12967,15563,0.014,551
2019-05-31T14:11:17,42.805,6.029,CST-1368DR,9267,12967,15561,0.014,551
2019-05-31T14:14:19,42.805,6.029,CST-1368DR,9266,12967,15563,0.014,551
2019-05-31T14:17:20,42.805,6.029,CST-1368DR,9266,12967,15564,0.013,551
2019-05-31T14:20:22,42.805,6.029,CST-1368DR,9266,12965,15561,0.014,551
2019-05-31T14:23:23,42.805,6.029,CST-1368DR,9266,12968,15564,0.013,551
2019-05-31T14:26:24,42.805,6.029,CST-1368DR,9266,12967,15563,0.014,551
2019-05-31T14:29:26,42.805,6.029,CST-1368DR,9266,12965,15561,0.014,551
2019-05-31T14:32:27,42.805,6.029,CST-1368DR,9266,12966,15562,0.014,551
2019-05-31T14:35:29,42.805,6.029,CST-1368DR,9266,12966,15561,0.014,551
2019-05-31T14:38:30,42.805,6.029,CST-1368DR,9266,12966,15562,0.014,551
2019-05-31T14:41:31,42.805,6.029,CST-1368DR,9266,12967,15563,0.014,551
2019-05-31T14:44:33,42.805,6.029,CST-1368DR,9266,12966,15562,0.014,551
2019-05-31T14:47:34,42.805,6.029,CST-1368DR,9266,12966,15562,0.014,551
2019-05-31T14:50:36,42.805,6.029,CST-1368DR,9266,12966,15562,0.014,551
2019-05-31T14:53:37,42.805,6.029,CST-1368DR,9266,12965,15561,0.014,551
2019-05-31T14:56:38,42.805,6.029,CST-1368DR,9266,12966,15561,0.014,550
2019-05-31T14:59:40,42.805,6.029,CST-1368DR,9266,12965,15560,0.014,551
2019-05-31T15:02:41,42.805,6.029,CST-1368DR,9266,12965,15561,0.014,551
2019-05-31T15:05:43,42.805,6.029,CST-1368DR,9266,12966,15562,0.014,551
2019-05-31T15:08:44,42.805,6.029,CST-1368DR,9266,12966,15562,0.014,551
2019-05-31T15:11:45,42.805,6.029,CST-1368DR,9266,12967,15563,0.014,551
2019-05-31T15:14:47,42.805,6.029,CST-1368DR,9266,12962,15558,0.015,551
2019-05-31T15:17:48,42.805,6.029,CST-1368DR,9266,12966,15562,0.014,551
2019-05-31T15:20:50,42.805,6.029,CST-1368DR,9266,12966,15561,0.014,551
2019-05-31T15:23:51,42.805,6.029,CST-1368DR,9266,12966,15562,0.014,551
2019-05-31T15:26:53,42.805,6.029,CST-1368DR,9266,12965,15561,0.014,551
2019-05-31T15:29:54,42.805,6.029,CST-1368DR,9266,12967,15563,0.014,551
2019-05-31T15:32:55,42.805,6.029,CST-1368DR,9266,12966,15562,0.014,551
2019-05-31T15:35:57,42.805,6.029,CST-1368DR,9266,12966,15562,0.014,551
2019-05-31T15:38:58,42.805,6.029,CST-1368DR,9266,12966,15562,0.014,551
2019-05-31T15:42:00,42.805,6.029,CST-1368DR,9266,12967,15563,0.014,551
2019-05-31T15:45:01,42.805,6.029,CST-1368DR,9266,12966,15562,0.014,551
2019-05-31T15:48:02,42.805,6.029,CST-1368DR,9265,12962,15559,0.015,551
2019-05-31T15:51:04,42.805,6.029,CST-1368DR,9265,12965,15562,0.014,551
2019-05-31T15:54:05,42.805,6.029,CST-1368DR,9265,12965,15562,0.014,551
2019-05-31T15:57:07,42.805,6.029,CST-1368DR,9265,12966,15563,0.014,551
2019-05-31T16:00:08,42.805,6.029,CST-1368DR,9265,12965,15562,0.014,551
2019-05-31T16:03:09,42.805,6.029,CST-1368DR,9265,12965,15562,0.014,551
2019-05-31T16:06:11,42.805,6.029,CST-1368DR,9265,12966,15563,0.014,550
2019-05-31T16:09:12,42.805,6.029,CST-1368DR,9265,12965,15562,0.014,551
2019-05-31T16:12:14,42.805,6.029,CST-1368DR,9265,12965,15562,0.014,550
2019-05-31T16:15:15,42.805,6.029,CST-1368DR,9265,12965,15562,0.014,550
2019-05-31T16:18:16,42.805,6.029,CST-1368DR,9265,12964,15561,0.014,551
2019-05-31T16:21:18,42.805,6.029,CST-1368DR,9265,12964,15561,0.014,551
2019-05-31T16:24:19,42.805,6.029,CST-1368DR,9265,12965,15562,0.014,551
2019-05-31T16:27:21,42.805,6.029,CST-1368DR,9265,12963,15560,0.014,551
2019-05-31T16:30:22,42.805,6.029,CST-1368DR,9265,12965,15562,0.014,551
2019-05-31T16:33:24,42.805,6.029,CST-1368DR,9265,12964,15561,0.014,551
2019-05-31T16:36:25,42.805,6.029,CST-1368DR,9265,12960,15556,0.015,551